Overview Statistics Trail Chart Weather Telemetry Raw packets
 

This is the latest recevied weather packets stored in our database for station/object K7DC. If no packets are shown the sender has not sent any weather packets the latest 10 day(s).

<< 97 98 99 100 101 102 103 >>
Time Temp. Humidity Pressure Rain* Wind** Luminosity Snow
1787911262 30.56° C 36% 1015.9 hPa 0 mm - 0 W/m² -
1787910959 30.56° C 36% 1015.7 hPa 0 mm - 0 W/m² -
1787910655 30.56° C 36% 1015.7 hPa 0 mm - 0 W/m² -
1787910355 30.56° C 36% 1015.7 hPa 0 mm - 0 W/m² -
1787910051 30.56° C 36% 1015.7 hPa 0 mm - 0 W/m² -
1787909748 30.56° C 36% 1015.8 hPa 0 mm - 0 W/m² -
1787909447 30.56° C 36% 1015.8 hPa 0 mm - 0 W/m² -
1787909143 30.56° C 35% 1015.8 hPa 0 mm - 0 W/m² -
1787908838 31.11° C 35% 1015.8 hPa 0 mm - 0 W/m² -
1787908538 31.11° C 34% 1015.9 hPa 0 mm - 0 W/m² -
1787908232 31.11° C 33% 1016 hPa 0 mm - 0 W/m² -
1787907931 31.67° C 33% 1015.8 hPa 0 mm - 0 W/m² -
1787907628 31.67° C 31% 1016 hPa 0 mm - 0 W/m² -
1787907326 32.22° C 31% 1015.5 hPa 0 mm - 0 W/m² -
1787907023 32.22° C 30% 1016 hPa 0 mm - 0 W/m² -
1787906719 32.22° C 30% 1016.1 hPa 0 mm - 0 W/m² -
1787906415 32.22° C 30% 1016 hPa 0 mm - 0 W/m² -
1787906114 31.67° C 31% 1015.9 hPa 0 mm - 0 W/m² -
1787905810 31.67° C 31% 1015.9 hPa 0 mm - 0 W/m² -
1787905505 31.67° C 31% 1016 hPa 0 mm - 0 W/m² -
1787905202 31.11° C 32% 1015.8 hPa 0 mm - 0 W/m² -
1787904901 30° C 34% 1016.3 hPa 0 mm - 0 W/m² -
1787904598 29.44° C 38% 1016 hPa 0 mm - 0 W/m² -
1787904297 29.44° C 40% 1016.1 hPa 0 mm - 0 W/m² -
1787903997 29.44° C 41% 1016.1 hPa 0 mm - 0 W/m² -

* Rain latest hour (hover to see other rain measurements)
** Current wind speed in m/s (hover to see current wind gust speed)